Regional Weather Roundup
Issued by NWS Jackson, KY

Home | Current Version | Previous Version | Graphics & Text | Print | Product List | Glossary On
Versions: 1 2 3 4 5 6 7 8 9 10 11 12 13 14 15 16 17 18 19 20 21 22 23 24 25 26 27 28 29 30 31 32 33 34 35 36 37 38 39 40 41 42 43 44 45 46 47 48 49 50
000
ASUS43 KJKL 210111
RWRJKL

EAST KENTUCKY HOURLY WEATHER ROUNDUP
NATIONAL WEATHER SERVICE JACKSON KY
800 PM EST SAT DEC 20 2014

NOTE: "FAIR" INDICATES FEW OR NO CLOUDS BELOW 12,000 FEET WITH
NO SIGNIFICANT WEATHER AND/OR OBSTRUCTIONS TO VISIBILITY.

* THESE REPORTS ARE NOT UNDER NWS QUALITY CONTROL AND MAY NOT
  REPORT WEATHER SUCH AS PRECIPITATION AND FOG.

KYZ079-080-083-085-087-088-110-112-115-119-120-210200
...EASTERN KENTUCKY...

CITY           SKY/WX    TMP DP  RH WIND       PRES   REMARKS
JACKSON        MOCLDY    32  24  72 CALM      30.24R
LONDON         CLEAR     34  25  69 N5        30.25R WCI  30
SOMERSET*      CLEAR     32  27  80 CALM      30.28S
MONTICELLO*    CLEAR     25  22  88 CALM      30.29R
MIDDLESBORO*   CLOUDY    40  30  67 CALM      30.24S
HARLAN APT*    CLOUDY    37  28  70 CALM      30.22S
HAZARD APT*    PTCLDY    36  27  69 CALM      30.25R
PIKEVILLE APT* CLOUDY    34  27  75 N5        30.23S WCI  30
BIG SANDY*     CLOUDY    34  27  75 CALM      30.25S
MOREHEAD APT*  CLOUDY    32  27  80 CALM      30.29S
$$

KYZ035-036-041-042-044-050-067-078-099-210200
...CENTRAL KENTUCKY...

CITY           SKY/WX    TMP DP  RH WIND       PRES   REMARKS
MT STERLING*   CLOUDY    32  28  86 NE3       30.29S
FLEMING/MASON* CLOUDY    30  27  86 CALM      30.29S
DANVILLE*      CLEAR     28  27  93 CALM      30.28S
RICHMOND*      MOCLDY    30  25  80 CALM      30.26S
LEXINGTON      PTCLDY    28  25  88 NE7       30.28R WCI  21
FRANKFORT      CLOUDY    33  25  72 CALM      30.28R
$$

KYZ091>093-OHZ055-061-077-WVZ005-015-034-035-042-210200
...SOUTHERN OHIO/WEST VIRGINIA...

CITY           SKY/WX    TMP DP  RH WIND       PRES   REMARKS
COVINGTON      CLOUDY    32  25  75 N3        30.28S
COLUMBUS       CLOUDY    30  23  75 N3        30.29R
DAYTON         CLOUDY    31  24  75 CALM      30.29R
WILMINGTON     CLOUDY    30  24  78 CALM      30.28R HAZE
HUNTINGTON     CLOUDY    33  25  72 NE3       30.27S
CHARLESTON     CLOUDY    34  24  67 CALM      30.26S
PINEVILLE*     CLOUDY    36  35  96 MISG      30.26S
BECKLEY        CLOUDY    33  26  75 CALM      30.18S
BLUEFIELD      LGT SNOW  34  31  88 W5        30.17S FOG     WCI  30
$$

VAZ002-007-008-TNZ017-027-036-066-071-210200
...SOUTHWEST VIRGINIA/EAST TENNESSEE...

CITY           SKY/WX    TMP DP  RH WIND       PRES   REMARKS
WISE*          CLOUDY    36  30  80 N3        30.19S
JONESVILLE*    CLOUDY    39  32  75 CALM      30.24S
ABINGDON*      CLOUDY    40  39  97 CALM      30.19S FOG
BRISTOL        CLOUDY    41  37  86 SW5       30.22R
KNOXVILLE      CLOUDY    42  35  76 NE3       30.23R
OAK RIDGE      CLEAR     40  33  76 CALM      30.25R
CROSSVILLE     MOCLDY    36  26  67 CALM      30.21R
NASHVILLE      MOCLDY    36  28  73 N7        30.26S WCI  30
$$

...KEY TO REMARKS...
VSB - VISIBILITY IN MILES
WCI - WIND CHILL INDEX
HX  - HEAT INDEX

$$



USA.gov is the U.S. government's official web portal to all federal, state and local government web resources and services.